Content
SEND FEEDBACK

Daily
Averages
Monthly
Summary
United States of America

WILMINGTON, NORTH CAROLINA


Home > North America > United States > North Carolina
Elevation: 72 feet     Latitude: 34 16N     Longitude: 077 54W

WEATHER
 
SELECT A DAY
Number of Records: 212,236;   Date Range: 1/1/95 - 10/18/14
 
SHARE

PRINT THIS DATA

[ ← Previous Day ]
WEATHER ALMANAC - SEPTEMBER 2, 2014
[ Next Day → ]
[ °C ]   °F
Weather ElementAverageHighLow
Temperature82.5 °F91 °F (12:53 pm)77 °F (3:53 am)
Dewpoint75.1 °F77 °F (7:53 am)73 °F (11:53 am)
Humidity79.5 %94 % (3:53 am)55 % (12:53 pm)
Barometer30.05 in30.10 in (7:53 am)29.99 in (4:53 pm)
Wind Speed6.9 mph12.7 mph (4:53 pm)
Weather ElementAverage
Visibility10 mi
Wind DirectionS (183.8 °)

Weather ElementTotal
Precipitation---
Cooling Degree Days19 (Base 65)
Growing Degree Days34 (Base 50)
Averaged from 24 records on September 2, 2014
WEATHER CONDITIONS BREAKOUT
WIND DIRECTION BREAKOUT
WEATHER BY HOUR - SEPTEMBER 2, 2014
[ °C ]   °F
Local TimeTemperatureDewpointHumidityBarometerVisibilityWind DirectionWind SpeedGust SpeedPrecipitationEventsConditions
1:53 AM78.1 °F75.9 °F93 %30.07 in10.0 miSSW (200°)4.6 mphClear
2:53 AM78.1 °F75.9 °F93 %30.07 in10.0 miSW (230°)3.5 mphClear
3:53 AM77.0 °F75.0 °F94 %30.06 in10.0 miSouth (190°)4.6 mphPartly Cloudy
4:53 AM77.0 °F75.0 °F94 %30.06 in10.0 miCalmMostly Cloudy
5:41 AM77.0 °F75.0 °F94 %30.07 in10.0 miCalmScattered Clouds
5:53 AM77.0 °F75.0 °F94 %30.07 in10.0 miSW (220°)3.5 mphPartly Cloudy
6:53 AM78.1 °F75.9 °F93 %30.08 in10.0 miWSW (240°)5.8 mphClear
7:53 AM79.0 °F77.0 °F94 %30.10 in10.0 miWest (260°)8.1 mphClear
8:53 AM82.0 °F77.0 °F85 %30.10 in10.0 miWest (260°)6.9 mphClear
9:53 AM84.9 °F75.9 °F74 %30.09 in10.0 miSW (230°)8.1 mphClear
10:53 AM88.0 °F75.0 °F65 %30.08 in10.0 miVariable4.6 mphClear
11:53 AM89.1 °F73.0 °F59 %30.07 in10.0 miWSW (240°)5.8 mphClear
12:53 PM91.0 °F73.0 °F55 %30.06 in10.0 miSW (220°)5.8 mphScattered Clouds
1:53 PM90.0 °F77.0 °F65 %30.07 in10.0 miSE (140°)10.4 mphClear
2:53 PM89.1 °F75.9 °F65 %30.04 in10.0 miSouth (190°)11.5 mphMostly Cloudy
3:53 PM89.1 °F73.9 °F61 %30.02 in10.0 miSouth (190°)11.5 mphClear
4:53 PM88.0 °F75.0 °F65 %29.99 in10.0 miSouth (180°)12.7 mphClear
5:53 PM86.0 °F73.9 °F67 %30.01 in10.0 miSouth (190°)12.7 mphClear
6:53 PM82.9 °F73.0 °F72 %30.01 in10.0 miSW (220°)11.5 mphClear
7:53 PM81.0 °F73.9 °F79 %30.01 in10.0 miSouth (190°)10.4 mphClear
8:53 PM80.1 °F75.0 °F85 %30.01 in10.0 miSSW (200°)6.9 mphClear
9:53 PM80.1 °F75.0 °F85 %30.02 in10.0 miSouth (190°)6.9 mphClear
10:53 PM79.0 °F75.0 °F88 %30.03 in10.0 miSW (220°)3.5 mphClear
11:53 PM79.0 °F75.0 °F88 %30.04 in10.0 miSSW (210°)5.8 mphClear
Hourly data recorded from KILM, located miles away from Wilmington, North Carolina







STORIES FROM OUR PARTNERS